| time (UTC) | temp F | wind direction | speed MPH | gust MPH | rain 1hr in | rain 24hr in | rain mn in | humidity % | barometer mb |
| 20260503054532 | 46 | 317 | 0.0 | 0.0 | 0.00 | 0.00 | 0.00 | 74 | 1009.2 |
| 20260503053020 | 48 | 297 | 0.0 | 1.0 | 0.00 | 0.00 | 0.00 | 73 | 1009.2 |
| 20260503051516 | 49 | 321 | 0.0 | 6.0 | 0.00 | 0.00 | 0.00 | 72 | 1009.1 |
| 20260503050016 | 49 | 359 | 0.0 | 9.0 | 0.00 | 0.00 | 0.00 | 71 | 1009.1 |
| 20260503044513 | 49 | 29 | 0.0 | 2.0 | 0.00 | 0.00 | 0.00 | 71 | 1009.1 |
| 20260503043015 | 50 | 44 | 0.0 | 6.0 | 0.00 | 0.00 | 0.00 | 70 | 1008.8 |
| 20260503041519 | 51 | 352 | 0.0 | 5.0 | 0.00 | 0.00 | 0.00 | 69 | 1008.8 |
| 20260503040016 | 51 | 356 | 0.0 | 8.0 | 0.00 | 0.00 | 0.00 | 69 | 1008.8 |
| 20260503034511 | 51 | 20 | 0.0 | 0.0 | 0.00 | 0.00 | 0.00 | 71 | 1008.8 |
| 20260503033011 | 51 | 8 | 0.0 | 0.0 | 0.00 | 0.00 | 0.00 | 71 | 1008.6 |
| 20260503031510 | 51 | 316 | 0.0 | 0.0 | 0.00 | 0.00 | 0.00 | 73 | 1008.5 |
| 20260503030015 | 49 | 25 | 0.0 | 0.0 | 0.00 | 0.00 | 0.00 | 71 | 1008.0 |
| 20260503024509 | 52 | 59 | 0.0 | 0.0 | 0.00 | 0.00 | 0.00 | 69 | 1007.7 |
| 20260503023010 | 54 | 60 | 0.0 | 0.0 | 0.00 | 0.00 | 0.00 | 66 | 1007.5 |
| 20260503021510 | 55 | 78 | 0.0 | 0.0 | 0.00 | 0.00 | 0.00 | 64 | 1007.2 |
| 20260503020008 | 56 | 82 | 0.0 | 0.0 | 0.00 | 0.00 | 0.00 | 61 | 1006.9 |
| 20260503014507 | 58 | 73 | 0.0 | 0.0 | 0.00 | 0.00 | 0.00 | 59 | 1006.7 |
| 20260503013015 | 59 | 58 | 0.0 | 0.0 | 0.00 | 0.00 | 0.00 | 57 | 1006.5 |
| 20260503011506 | 61 | 15 | 0.0 | 8.0 | 0.00 | 0.00 | 0.00 | 54 | 1006.3 |
| 20260503010006 | 63 | 75 | 4.0 | 15.0 | 0.00 | 0.00 | 0.00 | 51 | 1006.1 |
| 20260503004506 | 64 | 45 | 6.0 | 13.0 | 0.00 | 0.00 | 0.00 | 50 | 1005.8 |
| 20260503003005 | 66 | 67 | 6.0 | 15.0 | 0.00 | 0.00 | 0.00 | 47 | 1005.4 |
| 20260503001504 | 69 | 34 | 9.0 | 17.0 | 0.00 | 0.00 | 0.00 | 41 | 1005.1 |
| 20260503000003 | 69 | 342 | 7.0 | 15.0 | 0.00 | 0.00 | 0.00 | 38 | 1005.0 |
| 20260502234502 | 70 | 13 | 9.0 | 14.0 | 0.00 | 0.00 | 0.00 | 39 | 1005.0 |
| 20260502233001 | 70 | 317 | 6.0 | 16.0 | 0.00 | 0.00 | 0.00 | 39 | 1005.0 |
| 20260502231501 | 72 | 316 | 7.0 | 16.0 | 0.00 | 0.00 | 0.00 | 37 | 1004.9 |
| 20260502230001 | 72 | 342 | 9.0 | 15.0 | 0.00 | 0.00 | 0.00 | 37 | 1004.8 |
| 20260502224600 | 72 | 288 | 7.0 | 15.0 | 0.00 | 0.00 | 0.00 | 35 | 1004.7 |
| 20260502223110 | 73 | 297 | 9.0 | 15.0 | 0.00 | 0.00 | 0.00 | 34 | 1004.7 |
| 20260502221559 | 73 | 319 | 9.0 | 17.0 | 0.00 | 0.00 | 0.00 | 33 | 1004.8 |
| 20260502214554 | 72 | 306 | 3.0 | 8.0 | 0.00 | 0.00 | 0.00 | 36 | 1005.1 |
| 20260502213053 | 71 | 264 | 8.0 | 20.0 | 0.00 | 0.00 | 0.00 | 37 | 1005.3 |
| 20260502211550 | 71 | 239 | 8.0 | 18.0 | 0.00 | 0.00 | 0.00 | 39 | 1005.5 |
| 20260502210050 | 71 | 243 | 8.0 | 16.0 | 0.00 | 0.00 | 0.00 | 38 | 1006.0 |
| 20260502204542 | 71 | 282 | 10.0 | 21.0 | 0.00 | 0.00 | 0.00 | 38 | 1006.4 |
| 20260502203046 | 69 | 264 | 14.0 | 20.0 | 0.00 | 0.00 | 0.00 | 40 | 1006.5 |
| 20260502201540 | 69 | 238 | 13.0 | 20.0 | 0.00 | 0.00 | 0.00 | 38 | 1006.9 |
| 20260502200034 | 69 | 181 | 12.0 | 21.0 | 0.00 | 0.00 | 0.00 | 40 | 1007.4 |
| 20260502194531 | 69 | 191 | 10.0 | 17.0 | 0.00 | 0.00 | 0.00 | 38 | 1007.6 |
| 20260502193029 | 67 | 192 | 8.0 | 15.0 | 0.00 | 0.00 | 0.00 | 40 | 1008.0 |
| 20260502191528 | 66 | 219 | 7.0 | 13.0 | 0.00 | 0.00 | 0.00 | 42 | 1008.4 |
| 20260502190021 | 65 | 255 | 10.0 | 15.0 | 0.00 | 0.00 | 0.00 | 42 | 1008.9 |
| 20260502184520 | 66 | 276 | 7.0 | 11.0 | 0.00 | 0.00 | 0.00 | 42 | 1009.1 |
| 20260502183023 | 66 | 257 | 7.0 | 12.0 | 0.00 | 0.00 | 0.00 | 43 | 1009.1 |
| 20260502181515 | 65 | 214 | 0.0 | 0.0 | 0.00 | 0.00 | 0.00 | 42 | 1009.6 |
| 20260502163008 | 66 | 269 | 12.0 | 20.0 | 0.00 | 0.00 | 0.00 | 40 | 1010.1 |
| 20260502161505 | 66 | 290 | 9.0 | 17.0 | 0.00 | 0.00 | 0.00 | 41 | 1010.3 |
| 20260502151609 | 61 | 270 | 0.0 | 9.0 | 0.00 | 0.00 | 0.00 | 47 | 1011.3 |
| 20260502123006 | 40 | 214 | 0.0 | 2.0 | 0.00 | 0.00 | 0.00 | 72 | 1013.7 |
| 20260502121505 | 40 | 198 | 1.0 | 7.0 | 0.00 | 0.00 | 0.00 | 72 | 1013.9 |
| 20260502114501 | 40 | 198 | 0.0 | 11.0 | 0.00 | 0.00 | 0.00 | 71 | 1014.2 |
| 20260502113118 | 38 | 214 | 0.0 | 0.0 | 0.00 | 0.00 | 0.00 | 75 | 1014.2 |
| 20260502111602 | 37 | 229 | 0.0 | 0.0 | 0.00 | 0.00 | 0.00 | 76 | 1014.3 |
| 20260502110056 | 36 | 234 | 0.0 | 0.0 | 0.00 | 0.00 | 0.00 | 77 | 1014.5 |
| 20260502104606 | 36 | 212 | 0.0 | 0.0 | 0.00 | 0.00 | 0.00 | 75 | 1014.5 |
| 20260502103050 | 37 | 203 | 0.0 | 0.0 | 0.00 | 0.00 | 0.00 | 73 | 1014.7 |
| 20260502101604 | 39 | 190 | 2.0 | 11.0 | 0.00 | 0.00 | 0.00 | 70 | 1014.7 |
| 20260502071519 | 38 | 219 | 0.0 | 0.0 | 0.00 | 0.00 | 0.00 | 67 | 1017.4 |